Home   Weather   Merida   Past weeks

Flag for Mexico Past Weather in Merida, Yucatán, Mexico — Yesterday and Last 2 Weeks

Now
75 °F

Clear.


Feels Like: 76 °F
Forecast: 69 / 99 °F
Wind: 3 mph from Northeast

Location: Aerop. Internacional Merida - Yuc

Current Time: Apr 24, 2017 at 11:50:58 pm

Latest Report: Apr 24, 2017 at 10:48 pm


Visibility: 7 mi

Pressure: 29.89 "Hg

Humidity: 78%

Dew Point: 68 °F

Location of MeridaLocation

Past Weather in Merida — Graph

°F

Merida Temperature Yesterday

Maximum temperature yesterday: 90 °F (at 12:46 pm)
Minimum temperature yesterday: 72 °F (at 4:48 am)
Average temperature yesterday: 79 °F

High & Low Weather Summary for the Past Weeks

 TemperatureHumidityPressure
High97 °F (Apr 10, 3:47 pm)100% (Apr 19, 3:35 pm)30.08 "Hg (Apr 19, 3:35 pm)
Low66 °F (Apr 24, 5:52 am)23% (Apr 16, 3:46 pm)29.76 "Hg (Apr 22, 3:50 pm)
Average80 °F65%29.96 "Hg
* Reported Apr 9 9:41 pm — Apr 24 9:48 pm, Merida, Weather by CustomWeather, © 2017

Note: Actual official high and low records may vary slightly from our data, if they occured in-between our weather recording intervals... More about our weather records

Advertising

Merida Weather History for the Previous 24 Hours

Scroll right to see more
 ConditionsComfort  
Time TempWeatherWind HumidityBarometerVisibility
9:48 pm
Mon, Apr 24
75 °FClear.No wind78%29.89 "Hg7 mi
8:48 pm77 °FPassing clouds.6 mph79%29.88 "Hg7 mi
7:50 pm77 °FPassing clouds.5 mph74%29.87 "Hg7 mi
6:45 pm81 °FScattered clouds.12 mph66%29.85 "Hg7 mi
5:47 pm84 °FScattered clouds.12 mph58%29.84 "Hg7 mi
4:42 pm86 °FScattered clouds.8 mph55%29.84 "Hg7 mi
3:52 pm86 °FPartly sunny.5 mph55%29.88 "Hg7 mi
2:42 pm91 °FPartly sunny.6 mph44%29.86 "Hg7 mi
1:45 pm90 °FPartly sunny.12 mph46%29.89 "Hg7 mi
12:44 pm88 °FPartly sunny.7 mph46%29.93 "Hg7 mi
11:45 am86 °FPartly sunny.7 mph49%29.94 "Hg7 mi
10:45 am82 °FPartly sunny.5 mph58%29.97 "Hg7 mi
9:46 am81 °FPartly sunny.6 mph66%29.96 "Hg7 mi
8:44 am77 °FPassing clouds.5 mph74%29.95 "Hg6 mi
7:48 am72 °FScattered clouds.No wind88%29.94 "Hg6 mi
6:46 am66 °FScattered clouds.5 mph94%29.94 "Hg7 mi
5:52 am66 °FPassing clouds.No wind94%29.91 "Hg7 mi
4:51 am68 °FPassing clouds.No wind88%29.89 "Hg7 mi
3:48 am70 °FClear.No wind88%29.96 "Hg7 mi
2:49 am72 °FClear.No wind83%29.90 "Hg7 mi
1:51 am73 °FClear.6 mph83%29.91 "Hg7 mi
12:42 am73 °FClear.5 mph78%29.98 "Hg7 mi
11:42 pm
Sun, Apr 23
73 °FClear.6 mph78%29.95 "Hg7 mi
Weather by CustomWeather, © 2017

See weather overviewHow to use our weather pages